SCP
0 0 0 0 0 0 0 0 0 0 0 0 0 0 0 0 0 0 0 0 0 0 0 0 0 0 0 0 0 0 0 0 0 0 0 0 0 0 0 0 0 0 0
0 0 0 0 0 0 0 0 0 0 0 0 0 0 0 0 0 0 0 0 0 0 0 0 0 0 0 0 0 0 0 0 0 0 0 0 0 0 0 0 0 0 0
0 0 0 0 0 0 0 0 0 0 0 0 0 0 0 0 0 0 0 0 0 0 0 0 0 0 0 0 0 0 0 0 0 0 0 0 0 0 0 0 0 0 0
0 0 0 0 0 0 0 0 0 0 0 0 0 0 0 0 0 0 0 0 0 0 0 0 0 0 0 0 0 0 0 0 0 0 0 0 0 0 0 0 0 0 0
0 0 0 0 0 0 0 0 0 0 0 0 0 0 0 0 0 0 0 0 0 0 0 0 0 0 0 0 0 0 0 0 0 0 0 0 0 0 0 0 0 0 0
0 0 0 0 0 0 0 0 0 0 0 0 0 0 0 0 0 0 0 0 0 0 0 0 0 0 0 0 0 0 0 0 0 0 0 0 0 0 0 0 0 0 0
0 0 0 0 0 0 0 0 0 0 0 0 0 0 0 0 0 0 0 0 0 0 0 0 0 0 0 0 0 0 0 0 0 0 0 0 0 0 0 0 0 0 0
0 0 0 0 0 0 0 0 0 0 0 0 0 0 0 0 0 0 0 0 0 0 0 0 0 0 0 0 0 0 0 0 0 0 0 0 0 0 0 0 0 0 0
0 0 0 0 0 0 0 0 0 0 0 0 0 0 0 0 0 0 0 0 0 0 0 0 0 0 0 0 0 0 0 0 0 0 0 0 0 0 0 0 0 0 0
0 0 0 0 0 0 0 0 0 0 0 0 0 0 0 0 0 0 0 0 0 0 0 0 0 0 0 0 0 0 0 0 0 0 0 0 0 0 0 0 0 0 0
0 0 0 0 0 0 0 0 0 0 0 0 0 0 0 0 0 0 0 0 0 0 0 0 0 0 0 0 0 0 0 0 0 0 0 0 0 0 0 0 0 0 0
1 0 0 0 0 0 0 0 0 0 0 0 0 0 0 0 0 0 0 0 0 0 0 0 0 0 0 0 0 0 0 0 0 0 0 0 0 0 0 0 0 0 0
1 0 0 0 0 0 0 0 0 0 0 0 0 0 0 0 0 0 0 0 0 0 0 0 0 0 0 0 0 0 0 0 0 0 0 0 0 0 0 0 0 0 0
0 0 1 1 0 0 0 0 0 0 0 0 0 0 0 0 0 0 0 0 0 0 0 0 0 0 0 0 0 0 0 0 0 0 0 0 0 0 0 0 0 0 0
0 1 1 1 0 0 0 0 0 0 0 0 0 0 0 0 0 0 0 0 0 0 0 0 0 0 0 0 0 0 0 0 0 0 0 0 0 0 0 0 0 0 0
1 1 1 1 1 0 0 0 0 0 0 0 0 0 0 0 0 0 0 0 0 0 0 0 0 0 0 0 0 0 0 0 0 0 0 0 0 0 0 0 0 0 0
1 1 1 1 1 1 0 0 0 0 0 0 0 0 0 0 0 0 0 0 0 0 0 0 0 0 0 0 0 0 0 0 0 0 0 0 0 0 0 0 0 0 0
1 1 1 1 1 1 0 0 0 0 0 0 0 0 0 0 0 0 0 0 0 0 0 0 0 0 0 0 0 0 0 0 0 0 0 0 0 0 0 0 0 0 0
1 1 1 1 1 1 0 0 0 0 0 0 0 0 0 0 0 0 0 0 0 0 0 0 0 0 0 0 0 0 0 0 0 0 0 0 0 0 0 0 0 0 0
1 1 1 1 1 0 0 0 0 0 0 0 0 0 0 0 0 0 0 0 0 0 0 0 0 0 0 0 0 0 0 0 0 0 0 0 0 0 0 0 0 0 0
1 1 1 1 1 0 0 0 0 0 0 0 0 0 0 0 0 0 0 0 0 0 0 0 0 0 0 0 0 0 0 0 0 0 0 0 0 0 0 0 0 0 0
1 1 1 1 1 0 0 0 0 0 0 0 0 0 0 0 0 0 0 0 0 0 0 0 0 0 0 0 0 0 0 0 0 0 0 0 0 0 0 0 0 0 0
1 1 1 1 1 0 0 0 0 0 0 0 0 0 0 0 0 0 0 0 0 0 0 0 0 0 0 0 0 0 0 0 0 0 0 0 0 0 0 0 0 0 0
1 1 1 1 1 0 0 0 0 0 0 0 0 0 0 0 0 0 0 0 0 0 0 0 0 0 0 0 0 0 0 0 0 0 0 0 0 0 0 0 0 0 0
1 1 1 1 1 0 0 0 0 0 0 0 0 0 0 0 0 0 0 0 0 0 0 0 0 0 0 0 0 0 0 0 0 0 0 0 0 0 0 0 0 0 0
1 1 1 1 1 0 0 0 0 0 0 0 0 0 0 0 0 0 0 0 0 0 0 0 0 0 0 0 0 0 0 0 0 0 0 0 0 0 0 0 0 0 0
Wind_Speed
1 1 1 0 1 1 2 1 1 1 1 1 1 1 1 1 4 6 7 13 13 11 11 10 9 9 8 8 7 7 6 6 6 6 6 6 6 7 7 6 6 6 6
2 1 1 0 0 1 1 1 1 1 0 0 0 0 1 1 3 5 7 8 12 11 10 10 10 9 9 9 9 8 8 7 6 6 6 6 6 6 7 6 6 6 6
2 1 1 1 1 0 1 0 1 1 1 1 1 1 1 1 2 3 5 5 6 9 10 10 9 9 9 9 9 9 8 8 7 6 6 6 5 5 5 5 5 6 6
1 1 1 0 1 0 1 1 1 0 0 0 0 1 1 1 2 2 3 4 4 5 8 9 8 8 9 9 8 8 7 7 7 6 6 6 6 6 5 5 5 4 4
2 1 1 0 1 0 1 1 1 0 0 0 1 1 1 1 1 2 3 2 4 4 4 7 8 7 8 8 8 7 7 6 6 6 6 6 6 6 5 5 5 5 4
1 1 1 1 0 0 1 1 0 0 1 1 1 1 1 1 1 1 2 2 2 3 4 4 4 5 6 6 6 6 7 6 6 6 6 6 6 5 5 6 5 5 5
0 1 1 0 1 1 1 1 1 1 1 1 0 0 0 1 1 1 1 2 2 3 4 4 3 3 3 4 4 5 5 5 5 5 5 5 4 4 4 4 5 4 4
1 1 1 1 0 1 1 1 1 1 1 1 1 1 0 0 1 1 1 2 2 2 3 4 3 3 2 2 3 3 4 4 5 4 3 3 3 3 4 4 3 3 3
1 1 1 1 1 1 1 1 1 2 2 2 1 1 1 1 1 1 2 2 3 2 2 2 4 4 4 3 3 3 4 3 3 4 4 4 3 3 3 3 2 2 2
1 1 1 1 1 1 1 2 0 1 1 2 1 1 1 1 2 1 1 2 3 3 3 3 4 4 4 3 5 6 6 5 4 4 4 4 4 4 3 2 2 2 2
1 0 0 0 1 1 1 1 1 1 1 1 1 1 1 1 2 2 2 1 2 2 2 3 3 3 4 3 3 6 7 6 6 5 4 4 4 5 4 4 5 5 5
1 0 1 1 1 1 1 1 1 1 1 1 2 2 1 1 2 2 2 3 2 1 2 2 3 3 3 4 5 9 9 8 7 7 6 6 6 7 7 7 7 7 7
1 1 1 1 1 1 0 1 1 1 1 2 2 1 1 1 1 2 3 3 2 1 2 2 2 3 4 4 4 9 9 9 8 8 8 8 8 8 8 9 9 9 8
2 2 2 2 2 2 2 1 0 1 1 1 2 2 1 1 0 1 2 3 3 2 2 2 2 3 3 4 6 8 7 10 10 9 9 10 10 10 10 10 10 10 10
2 2 2 2 1 1 1 1 1 1 1 1 1 2 1 1 0 0 1 3 3 3 2 2 2 2 3 3 6 5 5 10 11 11 11 10 10 10 10 9 10 10 10
2 2 1 1 1 1 1 1 1 1 1 1 1 1 1 1 1 0 1 1 1 3 3 2 2 3 4 5 8 6 7 12 11 11 11 11 11 10 10 10 10 10 10
2 1 1 1 1 1 2 1 1 1 2 1 1 1 1 1 1 0 1 1 2 3 5 3 3 4 4 5 5 5 5 5 6 11 11 11 10 10 10 10 9 9 9
2 2 1 1 0 1 1 1 2 2 1 1 2 2 2 1 1 1 1 2 2 3 6 6 4 3 4 4 4 5 5 6 5 10 10 10 10 10 9 9 8 8 8
2 2 1 1 1 1 1 2 2 2 2 2 2 2 2 3 2 1 2 2 2 4 5 6 5 3 3 4 4 4 5 4 6 8 9 8 8 8 8 8 7 7 7
3 2 2 1 1 2 2 2 2 2 2 2 3 3 4 3 3 2 2 2 3 5 5 6 6 4 3 3 3 3 4 3 4 5 5 6 7 7 7 7 7 6 6
4 3 3 2 2 2 3 3 2 2 2 2 3 3 4 6 7 5 4 3 3 3 4 5 5 4 4 4 3 3 4 4 3 3 3 4 4 3 3 4 5 6 5
4 3 3 3 3 4 7 7 5 3 2 2 2 3 4 5 7 8 8 7 5 4 4 4 4 5 5 4 3 4 4 4 3 3 3 3 4 3 3 3 5 7 6
4 4 4 3 5 6 6 5 5 2 2 2 2 2 3 5 5 4 5 5 5 6 4 3 4 4 4 4 4 3 3 3 2 3 3 2 3 3 3 4 9 8 8
4 4 4 4 4 5 4 4 3 1 2 2 2 3 4 4 4 3 3 3 4 4 3 3 3 2 3 3 2 3 3 3 2 2 3 2 2 3 4 4 9 10 9
5 4 4 4 4 5 4 2 1 1 2 2 2 3 3 4 4 3 2 3 3 3 5 6 6 5 5 5 3 2 2 2 2 3 3 2 2 2 3 4 6 10 10
5 5 5 4 4 4 4 3 1 1 2 2 2 3 4 4 4 3 1 2 2 2 4 4 4 4 3 4 3 2 2 1 1 2 3 2 2 2 2 3 4 5 6
Wind_Direction
116 107 73 82 175 160 178 201 191 152 151 176 202 153 79 67 116 124 142 161 163 168 173 176 180 182 184 186 189 191 192 193 194 194 201 206 207 206 206 210 212 210 213
110 125 169 219 266 146 141 163 154 131 169 219 288 94 141 108 115 133 144 166 173 176 181 185 187 188 192 197 201 202 202 203 202 203 208 211 213 215 217 220 225 224 223
119 154 206 200 236 200 129 153 215 172 198 201 191 188 137 115 124 128 143 159 173 184 190 194 194 196 202 205 208 209 207 208 208 209 211 211 212 216 220 222 231 231 223
154 224 248 217 243 238 193 213 239 186 242 175 200 211 140 134 156 144 147 153 159 173 192 197 195 197 201 199 198 198 197 199 198 203 211 214 218 215 211 216 225 220 216
185 212 231 241 262 297 271 254 114 211 233 202 227 191 154 149 155 156 132 150 146 142 159 176 181 190 198 197 194 193 193 196 197 199 205 212 216 213 210 214 213 210 209
200 232 210 200 214 256 284 299 6 210 254 241 264 120 143 158 139 128 153 146 128 140 150 153 169 184 190 194 196 198 202 204 203 204 209 213 216 215 208 206 207 215 215
217 228 310 195 215 241 267 275 278 233 223 202 165 347 151 150 116 98 116 111 107 118 119 129 146 150 162 177 185 194 198 198 197 195 202 206 207 193 194 200 202 208 215
261 238 215 261 218 231 279 267 261 272 265 213 184 176 229 304 65 84 89 92 92 97 105 123 122 127 130 137 131 165 184 184 182 176 166 170 174 175 179 182 183 187 195
188 323 312 301 282 241 231 248 233 248 256 259 209 188 197 186 106 46 76 96 96 86 81 86 96 102 109 106 119 134 148 150 159 160 153 149 141 139 143 144 162 181 204
195 217 273 298 301 303 272 276 141 269 250 259 255 234 212 146 152 133 54 69 75 71 66 72 79 82 91 90 90 97 112 114 117 130 141 138 133 130 128 136 135 117 126
184 158 354 16 312 331 338 319 334 294 265 268 261 243 233 200 187 171 168 133 80 64 75 81 86 87 93 98 96 98 103 104 104 106 111 116 119 118 115 113 101 95 94
146 108 102 44 11 12 349 340 315 314 309 296 284 260 236 209 197 180 163 152 129 102 80 83 92 93 93 94 99 96 99 98 94 95 94 95 98 98 96 95 92 88 86
122 100 64 47 27 4 353 9 319 336 341 312 298 295 269 244 206 159 148 153 145 144 114 81 88 98 98 95 98 96 93 95 93 93 94 94 93 93 93 90 85 80 76
85 82 80 66 46 27 17 8 4 333 352 311 324 334 317 318 321 157 159 150 148 152 130 117 87 95 97 99 98 97 94 96 95 96 98 96 93 90 89 88 86 82 76
122 82 78 76 68 65 28 9 32 23 357 337 353 360 335 332 349 79 156 167 162 157 144 130 111 97 105 105 112 107 102 100 99 96 95 95 94 91 90 89 89 86 81
80 91 71 65 56 55 47 38 43 38 24 16 13 7 340 344 26 99 138 169 166 148 134 125 122 132 122 118 114 111 109 106 98 98 97 97 96 94 91 91 91 88 84
131 133 109 78 62 62 56 37 47 59 51 43 21 28 6 345 350 49 135 128 118 122 126 120 111 120 112 111 118 126 121 107 103 104 104 102 101 97 94 93 92 90 87
152 148 135 117 59 70 74 57 32 49 58 57 45 35 10 15 26 31 91 116 120 123 133 135 132 130 124 131 137 139 130 126 117 115 114 110 107 102 99 96 93 90 86
136 127 121 107 49 58 80 71 52 38 54 62 57 51 36 41 36 45 77 95 115 120 126 136 142 142 140 148 142 134 126 125 132 129 124 119 116 114 110 106 101 95 91
137 130 116 98 67 62 64 59 60 53 55 66 65 62 52 53 42 39 81 86 110 121 131 138 142 146 144 152 144 144 140 139 133 139 130 132 130 127 123 123 121 117 111
141 133 114 99 85 89 67 50 36 81 68 74 80 82 75 78 67 59 71 75 96 120 133 138 142 143 148 157 165 160 144 142 131 139 142 147 146 144 148 146 142 139 132
138 133 128 119 103 84 67 53 36 50 71 75 88 99 117 106 90 82 81 79 83 113 132 141 146 156 163 169 163 164 153 157 158 166 160 163 160 163 164 162 162 160 159
149 143 138 122 105 93 83 69 47 36 75 79 85 94 99 96 95 89 89 84 73 75 96 124 138 157 159 165 167 161 155 159 157 165 159 174 166 167 169 167 168 171 173
156 153 146 132 124 119 105 84 38 46 103 108 99 86 92 97 84 85 107 98 92 73 71 85 101 113 124 132 149 160 160 154 146 156 163 180 178 181 170 162 178 180 183
163 162 153 147 140 133 138 125 50 166 132 118 105 92 97 103 85 63 107 119 116 119 93 88 91 109 117 122 125 130 160 162 172 181 180 183 185 178 175 175 187 190 193
168 168 163 160 154 150 163 163 179 210 157 146 131 113 99 107 114 75 90 111 121 120 121 122 114 123 139 150 164 173 180 194 186 180 181 182 189 176 191 181 179 185 200